Showing default

ICEYE-X7, 46496

Orbit data source: Space-Track

ICEYE-X7, 46496 is a payload satellite owned by ICEYE (FI) in SSO that was launched on Mon, 28 Sep 2020 UTC via a SOYUZ-2-1B launch vehicle from the Plesetsk Missile And Space Complex (PKMTR). Payload-class satellites include a variety of spacecraft equipped with specific instruments for various scientific and technological missions. These include communications satellites like Starlink; space stations such as the ISS; scientific satellites like the Hubble; Earth observation satellites from companies like Planet Labs, Umbra, and HawkEye 360; GPS; miniature CubeSats for education and research; and military/defense satellites.

Loading next visibility...
Identifier
46496, 2020-068L
Orbit
SSO
Last TLE update
6 hours ago
Origin
Manufacturer
ICEYE
Mission
Operational Commercial Radar Imaging
Bus & Motor
ICEYE, Unknown motor
Mass
80 kg wet, 80 kg dry
Launch date (UTC)
2020-09-28 (5 years ago)
Launch vehicle
SOYUZ-2-1B
Launch site
Plesetsk Missile And Space Complex (PKMTR)
Object type
Payload
Rocket body
Debris
Shape & HBR
Box + 1 Pan, 3.25 m
Radar Cross Section
1.837 m², Medium (>0.1 m² and < 1m²)

Expand to show TLE details & history

TLE from 6 hours ago
0 ICEYE-X7
1 46496U 20068L   25129.13677578  .00012675  00000-0  57674-3 0  9991
2 46496  97.7050  77.1960 0007965 310.4096  49.6443 15.20829918253172
Epoch: 2025-05-09T03:16Z
Definitive object data (Epoch: 2025-05-09T03:16:57.427Z)
Latitude
-0.00003°
Longitude
160.75948°
Altitude
502.871 km
Speed
7.615 km/s
True Right ascension
05h 08m 47s
True Declination
0° 00' 00"
Sunlit
Object was in daylight at TLE epoch
Visualization TLE readout
Latitude
2.771°
Longitude
160.65592°
Altitude
502.811 km
Speed
7.615 km/s
Apparent Right ascension
05h 24m 01s
Apparent Declination
-17° 40' 52"
Sunlit
Object is in daylight
Visualization observer readout
Local Sidereal Time
17:46:01
Azimuth
13.66° NNE
Elevation
-67.261°
Doppler factor
1
Orbital elements
Apogee altitude
505.792 km
Perigee altitude
494.835 km
Semi-major axis
6,878.451 km
Eccentricity
0.0007965
Inclination
97.705°
RAAN
77.196°
Arg. of periapsis
310.4096°
True anomaly
49.7139°
Mean anomaly
49.6443°
Eccentric anomaly
49.67909°
Mean motion
3.80458 °/min
BSTAR
0.00057674
Orbital period
94.62 mins
Loading maneuver chart data...
Loading SW <> Apogee altitude chart data...
Loading historical data...
Loading historical data...
Loading historical data...
Loading historical data...
Loading historical data...
Loading historical data...
Loading historical data...

ICEYE-X7 Visibility forecast

Observer location: undefined°, undefined°

Span
Click to sort rows by Start time (UTC) header in descending order
Start Az.
Max El. time (UTC)
Max El. Az.
Max El.
End time (UTC)
End Az.
5 mins2025-05-09 10:09:40.055Z337.145° NNW2025-05-09 10:11:40.055Z299.425° NW21.159°2025-05-09 10:14:40.055Z240.086° WSW
5 mins2025-05-09 20:47:40.055Z190.239° SSW2025-05-09 20:49:40.055Z266.434° W39.445°2025-05-09 20:52:40.055Z336.729° NNW
|